Regional Weather Roundup
Issued by NWS

Home | Current Version | Previous Version | Graphics & Text | Print | Product List | Glossary On
Versions: 1 2 3 4 5 6 7 8 9 10 11 12 13 14 15 16 17 18 19 20 21 22 23 24 25 26 27 28 29 30 31 32 33 34 35 36 37 38 39 40 41 42 43 44 45 46 47 48 49 50
701
ASUS44 KMEG 252110
RWRTN
TENNESSEE HOURLY STATE WEATHER ROUNDUP
NATIONAL WEATHER SERVICE MEMPHIS TN
400 PM CDT THU MAY 25 2017

TNZ002-004-019-021-049-052-054-088>092-252200-
WEST TENNESSEE

CITY           SKY/WX    TMP DP  RH WIND       PRES   REMARKS
MEMPHIS INTL   MOSUNNY   76  52  43 SW7G20    29.79F
NWS MEMPHIS      N/A     76 N/A N/A MISG        N/A
JACKSON        SUNNY     75  50  41 W13       29.79S
DYERSBURG        N/A    N/A N/A N/A MISG        N/A
COVINGTON      SUNNY     75  52  43 SW10      29.78S
UNION CITY     SUNNY     75  50  41 W10G16    29.75F
BOLIVAR        SUNNY     75  52  43 SW8       29.79S
PARIS          MOSUNNY   73  54  49 W12       29.76S
HUNTINGDON     MOSUNNY   72  52  49 SW8G15    29.77S
LEXINGTON      PTSUNNY   73  52  46 MISG      29.79S
SELMER         PTSUNNY   72  52  49 VRB6G13   29.79F
SAVANNAH       MOSUNNY   73  52  46 SW12      29.79F
$$

TNZ008-025-027-028-033-062-065-066-252200-
NORTH MIDDLE TENNESSEE

CITY           SKY/WX    TMP DP  RH WIND       PRES   REMARKS
NASHVILLE      PTSUNNY   74  50  42 W12G21    29.76S
PORTLAND       CLOUDY    70  54  56 W13G21    29.74R
CLARKSVILLE    MOSUNNY   74  51  44 W14       29.75S
SMYRNA         PTSUNNY   72  52  49 W18G25    29.77R
COOKEVILLE     PTSUNNY   70  54  56 W8G15     29.75R
GALLATIN       PTSUNNY   72  54  53 W10G18    29.77R
CROSSVILLE     CLOUDY    64  51  62 W17       29.77R
$$

TNZ061-075-076-078-094-096-097-252200-
SOUTH MIDDLE TENNESSEE

CITY           SKY/WX    TMP DP  RH WIND       PRES   REMARKS
FAYETTEVILLE   PTSUNNY   70  52  52 W8G18     29.80R
TULLAHOMA      PTSUNNY   70  48  46 W16       29.80
WINCHESTER     PTSUNNY   70  52  52 W10         N/A
MCMINNVILLE      N/A     70  54  56 W15       29.77
COLUMBIA       PTSUNNY   72  50  46 SW10G18   29.77S
SHELBYVILLE    MOSUNNY   72  52  49 W13G18    29.78R
$$

TNZ017-018-042-046-047-252200-
NORTHEAST TENNESSEE

CITY           SKY/WX    TMP DP  RH WIND       PRES   REMARKS
TRI CITIES     LGT RAIN  57  53  86 SW17      29.67R FOG
ELIZABETHTON   CLOUDY    57  52  82 W12G21    29.68R
$$

TNZ012-013-036-069-073-074-252200-
CENTRAL EAST TENNESSEE

CITY           SKY/WX    TMP DP  RH WIND       PRES   REMARKS
KNOXVILLE      CLOUDY    66  52  60 SW18G26   29.72
OAK RIDGE      CLOUDY    67  52  58 VRB5      29.73R
DOWNTOWN KNOXV PTSUNNY   66  54  63 W16G30    29.71S
GATLINBURG     CLOUDY    64  50  59 SW14      29.71R
MORRISTOWN     CLOUDY    61  54  77 W12       29.69S
JACKSBORO      CLOUDY    68  54  60 VRB10G22  29.72R
$$

TNZ083-085-099-252200-
SOUTHEAST TENNESSEE

CITY           SKY/WX    TMP DP  RH WIND       PRES   REMARKS
CHATTANOOGA    PTSUNNY   72  48  42 W12G22    29.78R
$$

SKY/WX REPORTED AS FAIR MEANS FEW OR NO CLOUDS BELOW
12 THOUSAND FEET.





USA.gov is the U.S. government's official web portal to all federal, state and local government web resources and services.